Historical Weather Data

Soule Park Golf Course
1033 East Ojai Ave
Ojai, CA 93023
Date ET
(Inches)
Rain
(Inches)
Temp °F
Humidity
Avg
Wind MPH
Avg
Solar Wm2
Avg
High Ave Low
4/1/17 0.19 0.00 79.6 60.5 41.3 51 2.8 294
4/2/17 0.18 0.00 76.8 60.2 44.9 63 2.8 289
4/3/17 0.12 0.00 66.8 54.1 46.3 85 2.8 248
4/4/17 0.16 0.00 75.8 59.4 47.5 74 2.6 289
4/5/17 0.19 0.00 84.8 64.0 45.7 57 2.7 280
4/6/17 0.14 0.00 80.0 59.6 45.7 63 2.3 205
4/7/17 0.14 0.20 74.3 56.0 41.2 68 2.5 240
4/8/17 0.17 0.01 67.5 57.4 45.8 69 3.6 300
4/9/17 0.16 0.00 70.4 54.1 39.9 55 3.1 268
4/10/17 0.20 0.00 76.9 58.3 38.8 48 2.9 307
4/11/17 0.15 0.00 73.0 56.7 40.8 64 2.9 250
4/12/17 0.18 0.00 72.8 58.2 43.2 74 3.5 309
4/13/17 0.14 0.00 67.7 57.5 46.7 76 3.3 254
4/14/17 0.19 0.00 71.3 56.5 42.0 55 2.9 320
4/15/17 0.21 0.00 79.0 59.6 39.5 52 3.0 321
4/16/17 0.20 0.00 77.4 59.6 42.9 59 2.9 307
4/17/17 0.10 0.00 73.6 59.1 47.7 77 2.4 165
4/18/17 0.10 0.11 72.0 61.4 55.1 86 2.5 175
4/19/17 0.20 0.00 76.4 63.8 48.5 68 3.0 324
4/20/17 0.23 0.00 83.0 64.5 45.5 49 3.1 333
4/21/17 0.25 0.00 91.5 69.3 47.6 39 3.1 330
4/22/17 0.25 0.00 90.0 70.6 51.3 45 3.2 326
4/23/17 0.21 0.00 78.4 64.5 49.9 66 3.2 321
4/24/17 0.20 0.00 75.9 63.0 46.2 60 3.4 303
4/25/17 0.19 0.00 76.8 64.4 49.0 47 3.4 286
4/26/17 0.21 0.00 89.4 71.0 52.6 44 3.4 278
4/27/17 0.23 0.00 87.1 70.5 54.3 43 3.4 308
4/28/17 0.25 0.00 84.0 68.8 51.1 30 3.7 341
4/29/17 0.26 0.00 81.1 66.4 47.5 28 3.6 355
4/30/17 0.26 0.00 85.1 67.0 45.8 37 3.0 354